Flag for Trinidad and Tobago Weather past 2 weeks in Port of Spain, Trinidad and Tobago

Now
90 °F

Passing clouds.


Feels Like: 95 °F
Forecast: 77 / 88 °F
Wind: 14 mph from Southeast

Location: Piarco International Airport - Trinidad

Current Time: Oct 25, 2014 at 1:57:24 PM

Latest Report: Oct 25, 2014 at 1:00 PM


Visibility: N/A

Pressure: 29.83 "Hg

Humidity: 52%

Dew point: 70 °F

Location of Port of SpainLocation

Historic Weather in Port of Spain — Graph

°F

Port of Spain temperature yesterday

Maximum temperature yesterday: 90 °F (at 1:00 PM)
Minimum temperature yesterday: 75 °F (at 1:00 AM)
Average temperature yesterday: 81 °F

Past Weeks' High & Low Weather Summary

 TemperatureHumidityPressure
High97 °F (Oct 16, 1:00 PM)100% (Oct 18, 5:00 AM)30.01 "Hg (Oct 18, 5:00 AM)
Low72 °F (Oct 12, 6:00 AM)47% (Oct 12, 1:00 PM)29.77 "Hg (Oct 25, 3:00 AM)
Average82 °F78%29.88 "Hg
* Reported Oct 10 12:00 Noon — Oct 25 12:00 Noon, Port of Spain, Weather by CustomWeather, © 2014

Note: Actual official high and low records may vary slightly from our data, if they occured in-between our weather recording intervals... More about our weather records

Advertising

Port of Spain weather history for previous 24 hours

 ConditionsComfort  
Time TempWeatherWind HumidityBarometerVisibility
12:00 PM
Oct 25
88 °FPassing clouds.13 mph62%29.86 "HgN/A
11:00 AM90 °FPassing clouds.14 mph59%29.89 "HgN/A
10:00 AM90 °FPassing clouds.17 mph59%29.89 "HgN/A
9:00 AM88 °FScattered clouds.9 mph70%29.89 "HgN/A
8:00 AM84 °FScattered clouds.No wind79%29.86 "HgN/A
7:00 AM79 °FSprinkles. Scattered clouds.No wind94%29.86 "HgN/A
6:00 AM77 °FScattered showers. Passing clouds.No wind94%29.83 "HgN/A
5:00 AM77 °FScattered showers. Passing clouds.No wind94%29.80 "HgN/A
4:00 AM77 °FScattered showers. Passing clouds.No wind89%29.80 "Hg6 mi
3:00 AM77 °FPassing clouds.No wind94%29.77 "HgN/A
2:00 AM77 °FPassing clouds.No wind94%29.80 "HgN/A
1:00 AM77 °FPassing clouds.5 mph94%29.83 "HgN/A
12:00 AM77 °FPassing clouds.No wind94%29.83 "HgN/A
11:00 PM
Oct 24
77 °FPassing clouds.5 mph94%29.86 "HgN/A
10:00 PM77 °FPassing clouds.5 mph89%29.86 "HgN/A
9:00 PM79 °FPassing clouds.5 mph84%29.86 "HgN/A
8:00 PM79 °FSprinkles. Passing clouds.9 mph89%29.86 "HgN/A
7:00 PM82 °FSprinkles. Passing clouds.No wind79%29.83 "HgN/A
6:00 PM82 °FPassing clouds.6 mph74%29.80 "HgN/A
5:00 PM84 °FPassing clouds.12 mph70%29.80 "HgN/A
4:00 PM86 °FPassing clouds.8 mph70%29.80 "HgN/A
3:00 PM86 °FPassing clouds.12 mph66%29.80 "HgN/A
2:00 PM88 °FPassing clouds.9 mph62%29.83 "HgN/A
1:00 PM90 °FPassing clouds.12 mph55%29.86 "HgN/A
Weather by CustomWeather, © 2014

See weather overviewHow to use our weather pages